Regional Weather Roundup
Issued by NWS

Home | Current Version | Previous Version | Graphics & Text | Print | Product List | Glossary On
Versions: 1 2 3 4 5 6 7 8 9 10 11 12 13 14 15 16 17 18 19 20 21 22 23 24 25 26 27 28 29 30 31 32 33 34 35 36 37 38 39 40 41 42 43 44 45 46 47 48 49 50
834
ASUS43 KMPX 181001
RWRMN
WEATHER ROUNDUP FOR MINNESOTA
NATIONAL WEATHER SERVICE TWIN CITIES/CHANHASSEN MN
400 AM CST MON DEC 18 2017


NOTE: "FAIR" INDICATES FEW OR NO CLOUDS BELOW 12,000 FEET WITH NO
SIGNIFICANT WEATHER AND/OR OBSTRUCTIONS TO VISIBILITY. N/A MEANS
CURRENT SKY AND/OR WEATHER CONDITIONS ARE NOT AVAILABLE.

MNZ060>063-068>070-181100-
   Twin Cities Metro

CITY           SKY/WX    TMP DP  RH WIND       PRES   REMARKS
TWIN CITIES    CLOUDY    25  25 100 SE5       29.86F FOG     WCI  19
ST PAUL        CLOUDY    26  24  92 S6        29.88F FOG     WCI  19
CRYSTAL        CLOUDY    26  22  84 S6        29.84F FOG     WCI  19
BLAINE         CLOUDY    27  27 100 S7        29.84F FOG     WCI  19
LAKEVILLE        N/A     25  25 100 CALM      29.87F FOG
EDEN PRAIRIE   CLOUDY    26  24  92 S5        29.85F FOG     WCI  20
SOUTH ST PAUL  CLOUDY    27  26  98 CALM      29.87F FOG
LAKE ELMO      CLOUDY    27  27 100 S5        29.87F FOG     WCI  21
$$
MNZ001>005-007-008-013>017-022>024-027-028-181100-
   Northwest Minnesota

CITY           SKY/WX    TMP DP  RH WIND       PRES   REMARKS
BEMIDJI        CLOUDY    28  27  95 S7        29.66F WCI  21
HALLOCK        CLOUDY    25  23  93 S13       29.57F WCI  13
ROSEAU         PTCLDY    30  27  86 SW15G24   29.57F WCI  19
WARROAD        PTCLDY    30  27  86 S13G18    29.56F WCI  20
CROOKSTON      CLOUDY    28  28 100 S14       29.64F WCI  17
FOSSTON        PTCLDY    28  27  93 S16       29.65F WCI  17
DETROIT LAKES  CLOUDY    28  28 100 S7        29.70F FOG     WCI  21
MOORHEAD       CLOUDY    30  28  93 S7        29.69F WCI  23
PARK RAPIDS    CLOUDY    26  23  88 S8        29.69F FOG     WCI  18
MAHNOMEN       PTSUNNY   30  28  92 S16       29.67F WCI  19
$$
MNZ006-009>011-018-025>026-181100-
   North Central Minnesota

CITY           SKY/WX    TMP DP  RH WIND       PRES   REMARKS
BAUDETTE       CLOUDY    27  25  92 S15       29.59F WCI  15
FLAG ISLAND    CLOUDY    25  23  93 S8        29.55F WCI  16
INTL FALLS     CLOUDY    26  22  84 S7        29.65F FOG     WCI  18
WASKISH        CLOUDY    28  27  93 S7G17     29.63F WCI  21
BIG FORK       CLOUDY    28  27  93 S9        29.68F FOG     WCI  20
LONGVILLE      CLOUDY    27  25  93 S3        29.73F FOG
GRAND RAPIDS   CLOUDY    25  22  88 S9        29.74F WCI  15
CRANE LAKE     CLOUDY    25  25 100 S6        29.71F WCI  18
ORR            CLOUDY    27  23  86 S8        29.67F WCI  18
COOK           CLOUDY    27  25  93 S6        29.71F WCI  20
WALKER         CLOUDY    27  26  93 S7        29.70F WCI  20
$$
MNZ012-019>021-037-181100-
   Northeast Minnesota

CITY           SKY/WX    TMP DP  RH WIND       PRES   REMARKS
DULUTH         CLOUDY    22  21  96 SW9       29.76F FOG     WCI  12
ELY            CLOUDY    25  25 100 S6        29.71F WCI  18
HIBBING        CLOUDY    24  22  91 S6        29.73F WCI  17
EVELETH        CLOUDY    24  21  89 S8        29.75F WCI  15
DULUTH HARBOR  CLOUDY    27  23  86 SW8       29.82F WCI  18
TWO HARBORS    CLOUDY    28  23  80 SW8       29.76F HAZE    WCI  20
SILVER BAY     CLOUDY    27  25  93 CALM      29.75F
GRAND MARAIS     N/A     28  24  85 W13       29.78F WCI  17
G MARAIS ARPRT CLOUDY    18  14  86 CALM      29.71F FOG
$$
MNZ029>031-032-039>041-046>048-054>057-064-181100-
   West Central Minnesota

CITY           SKY/WX    TMP DP  RH WIND       PRES   REMARKS
FERGUS FALLS   CLOUDY    30  30 100 S9        29.75F WCI  22
WHEATON        CLOUDY    34  28  80 S9        29.76F WCI  26
MORRIS         CLOUDY    28  27  93 S8        29.75F WCI  20
ALEXANDRIA     CLOUDY    31  27  85 S10       29.76F WCI  22
ELBOW LAKE     CLOUDY    30  28  94 S10       29.74F WCI  21
WADENA         CLOUDY    27  27 100 S8        29.72F FOG     WCI  18
GLENWOOD       CLOUDY    28  27  93 SW7       29.77F WCI  21
APPLETON       CLOUDY    36  28  75 S8        29.77F
BENSON         CLOUDY    30  27  86 SW5       29.79F WCI  25
ORTONVILLE     CLOUDY    34  28  80 S6        29.76F WCI  29
MADISON        CLOUDY    36  30  80 S6        29.78F
WILLMAR        FAIR      28  27  93 CALM      29.81F
$$
MNZ033>034-036-042>043-049>051-058-059-181100-
   Central Minnesota

CITY           SKY/WX    TMP DP  RH WIND       PRES   REMARKS
ST CLOUD       CLOUDY    25  23  92 S7        29.81F WCI  17
SAUK CENTRE    FAIR      28  25  91 S6        29.78F WCI  21
PAYNESVILLE    CLOUDY    29  27  92 S5        29.79F WCI  23
AITKIN         CLOUDY    23  19  86 S5        29.74F WCI  17
PINE RIVER     MOCLDY    23  21  93 S5        29.77F FOG     WCI  17
BRAINERD       CLOUDY    26  22  84 S8        29.76F FOG     WCI  18
STAPLES        CLOUDY    25  25 100 S9        29.74F FOG     WCI  15
LONG PRAIRIE   MOCLDY    28  27  93 SE5       29.77F FOG     WCI  23
LITTLE FALLS   CLOUDY    27  19  74 SE5       29.78F WCI  21
LITCHFIELD     CLOUDY    28  27  93 CALM      29.82F
BUFFALO        CLOUDY    26  24  91 S5        29.85S FOG     WCI  20
MAPLE LAKE     CLOUDY    27  26  94 S5        29.83F FOG     WCI  22
HUTCHINSON     CLOUDY    28  26  92 CALM      29.83F
$$
MNZ037-044-045-052-053-181100-
   East Central Minnesota

CITY           SKY/WX    TMP DP  RH WIND       PRES   REMARKS
PRINCETON      CLOUDY    27  25  93 S3        29.82F FOG
MORA           CLOUDY    23  21  93 S3        29.83F FOG
CAMBRIDGE      CLOUDY    27  25  93 S6        29.83F FOG     WCI  20
RUSH CITY      CLOUDY    25  24  95 S3        29.84F FOG
MOOSE LAKE     CLOUDY    23  21  93 S5        29.79F FOG     WCI  17
HINCKLEY       PTSUNNY   25  25 100 S6        29.82F FOG     WCI  18
CLOQUET        CLOUDY    23  19  86 S5        29.77F WCI  17
MCGREGOR       CLOUDY    27  23  86 S6        29.77F WCI  20
$$
MNZ071>073-080-081-089-090-097-098-181100-
   Southwest Minnesota

CITY           SKY/WX    TMP DP  RH WIND       PRES   REMARKS
MONTEVIDEO     CLOUDY    32  28  86 SW8       29.79F WCI  25
GRANITE FALLS  PTCLDY    32  29  88 S10       29.83F WCI  24
CANBY          CLOUDY    36  29  76 S6        29.79F
MARSHALL       CLOUDY    30  27  88 S6        29.81F WCI  24
REDWOOD FALLS  CLOUDY    31  28  89 S10       29.81F WCI  22
OLIVIA         PTCLDY    30  28  93 S6        29.81F WCI  24
PIPESTONE      CLEAR     27  25  93 SW9       29.81F WCI  17
WINDOM           N/A     28  18  64 S9        29.85F WCI  20
WORTHINGTON    CLEAR     25  23  92 S8        29.84F WCI  16
JACKSON        CLEAR     25  23  93 S8        29.86F FOG     WCI  16
SLAYTON        CLEAR     27  26  94 SW13      29.82F WCI  17
$$
MNZ065>067-074>077-082>085-091>093-181100-
   South Central Minnesota

CITY           SKY/WX    TMP DP  RH WIND       PRES   REMARKS
MANKATO        CLOUDY    26  24  92 S6        29.87F WCI  19
NEW ULM        CLOUDY    27  25  93 S8        29.84F FOG     WCI  18
ST JAMES       CLOUDY    27  25  93 S7        29.87F WCI  19
FAIRMONT       PTCLDY    25  23  92 SW7       29.88F FOG     WCI  17
GLENCOE        CLOUDY    28  28 100 S5        29.83F FOG     WCI  23
FARIBAULT      CLOUDY    27  25  93 S5        29.88R FOG     WCI  21
OWATONNA       CLOUDY    27  25  93 S5        29.87S FOG     WCI  21
WASECA         CLOUDY    28  25  86 S5        29.89S FOG     WCI  23
$$
MNZ078>079-086>088-094>096-181100-
   Southeast Minnesota

CITY           SKY/WX    TMP DP  RH WIND       PRES   REMARKS
ROCHESTER      FOG       28  27  96 SW7       29.87F VSB 1   WCI  21
RED WING       CLOUDY    28  25  86 CALM      29.88S FOG
STANTON        CLOUDY    28  26  91 S3        29.86S FOG
DODGE CENTER   MOCLDY    27  27 100 S6        29.87F FOG     WCI  20
WINONA         CLOUDY    30  28  93 W3        29.91F FOG
PRESTON        FOG       26  25  96 W5        29.89F VSB 1/2 WCI  21
$$
ABBREVIATIONS USED IN REMARKS
   TC - TEMPERATURES IN CELSIUS
  WCI - WIND CHILL INDEX
   HX - HEAT INDEX
  VSB - VISIBILITY
$$




USA.gov is the U.S. government's official web portal to all federal, state and local government web resources and services.